Location: Unspecified
(38.7394°N, 0.0000°E)
Time: 07:11:16
(UTC+00:00)

Transit 4A - Visible Passes

Search period start: 04 April 2026 00:00
Search period end: 14 April 2026 00:00
Orbit: 863 x 978 km, 66.8° (Epoch: 29 March)

Date Brightness Start Highest point End Pass type
(mag) Time Alt. Az. Time Alt. Az. Time Alt. Az.
4 Apr 10.7 00:07:02 10° NNE 00:07:25 10° NNE 00:07:48 10° NE visible
4 Apr 9.3 01:49:20 10° NNW 01:53:16 34° N 01:53:16 34° N visible
4 Apr 10.0 03:36:06 10° NW 03:36:38 12° NW 03:36:38 12° NW visible
5 Apr 10.4 00:13:34 10° N 00:16:43 14° NE 00:17:21 14° NE visible
5 Apr 9.5 01:57:57 10° NNW 02:00:46 27° NNW 02:00:46 27° NNW visible
5 Apr 10.6 18:52:59 10° WNW 18:56:15 15° NW 18:59:36 10° N visible
6 Apr 10.2 00:21:33 10° N 00:25:07 18° NE 00:25:07 18° NE visible
6 Apr 9.8 02:06:40 10° NNW 02:08:32 21° NNW 02:08:32 21° NNW visible
6 Apr 10.8 19:04:12 10° NW 19:05:32 11° NW 19:06:52 10° NNW visible
7 Apr 10.0 00:29:48 10° N 00:33:03 22° NNE 00:33:03 22° NNE visible
7 Apr 10.1 02:15:30 10° NW 02:16:29 15° NW 02:16:29 15° NW visible
8 Apr 9.9 00:38:13 10° NNW 00:41:06 24° N 00:41:06 24° N visible
8 Apr 10.3 02:24:29 10° NW 02:24:32 10° NW 02:24:32 10° NW visible
8 Apr 10.5 23:03:24 10° NNE 23:05:01 11° NE 23:05:47 11° NE visible
9 Apr 9.9 00:46:45 10° NNW 00:49:13 24° N 00:49:13 24° N visible
9 Apr 10.3 23:10:46 10° N 23:13:58 15° NE 23:13:58 15° NE visible
10 Apr 10.0 00:55:23 10° NNW 00:57:24 22° NNW 00:57:24 22° NNW visible
10 Apr 10.1 23:18:51 10° N 23:22:11 19° NNE 23:22:11 19° NNE visible
11 Apr 10.1 01:04:08 10° NNW 01:05:38 18° NNW 01:05:38 18° NNW visible
11 Apr 9.9 23:27:10 10° N 23:30:28 23° NNE 23:30:28 23° NNE visible
12 Apr 10.2 01:13:00 10° NW 01:13:54 15° NW 01:13:54 15° NW visible
12 Apr 9.8 23:35:36 10° NNW 23:38:47 26° N 23:38:47 26° N visible
13 Apr 10.4 01:22:02 10° NW 01:22:14 11° NW 01:22:14 11° NW visible
13 Apr 10.3 22:00:20 10° NNE 22:02:37 12° NE 22:03:40 11° NE visible
13 Apr 9.7 23:44:10 10° NNW 23:47:07 28° N 23:47:07 28° N visible
